Location: Del Amo
(33.8464°N, 118.2104°W)
Time: 07:32:25
(UTC+00:00)

Vanguard 3 - Pass Details

Date: 21 September 2024
Orbit: 507 x 3223 km, 33.3° (Epoch: 09 October)

Event Time Altitude Azimuth Distance (km) Brightness Sun altitude
Rises 15:00:04 0° 266° (W) 6,509 11.2 15.6°
Reaches altitude 10° 15:03:59 10° 266° (W) 5,725 10.9 16.4°
Maximum altitude 15:23:14 89° 181° (S) 3,212 10.5 20.3°
Drops below altitude 10° 15:41:11 10° 93° (E) 5,393 13.0 23.8°
Sets 15:44:45 0° 93° (E) 6,135 12.9 24.6°
